Preview of NWS' New Version of Forecast
This preview is not operational and should not be used for support decisions.

Regional Weather Roundup (RWR)

Issued by National Weather Service (NWS)

                            
000
ASUS44 KMEG 221610
RWRTN 
TENNESSEE HOURLY STATE WEATHER ROUNDUP
NATIONAL WEATHER SERVICE MEMPHIS TN
1100 AM CDT MON JUL 22 2019

TNZ002-004-019-021-049-052-054-088>092-221700-
WEST TENNESSEE
  
CITY           SKY/WX    TMP DP  RH WIND       PRES   REMARKS
MEMPHIS INTL   CLOUDY    82  77  84 SW8       29.95S HX  90           
NWS MEMPHIS      N/A     81 N/A N/A MISG        N/A                   
JACKSON        PTSUNNY   82  75  79 S12G17    29.94F                  
DYERSBURG      CLOUDY    81  77  88 SW8       29.93S                  
SOMERVILLE     CLOUDY    82  75  78 SW12      29.94F                  
COVINGTON      CLOUDY    82  77  83 W13       29.92F HX  91           
UNION CITY     CLOUDY    81  77  89 S8        29.90R                  
BOLIVAR        PTSUNNY   79  75  89 S5        29.94F                  
PARIS          CLOUDY    81  77  89 SW8G14    29.92S                  
HUNTINGDON     CLOUDY    81  77  89 SW5       29.92F                  
LEXINGTON      MOSUNNY   82  77  83 SW8       29.93F HX  91           
SELMER         CLOUDY    81  75  83 VRB6      29.95F                  
SAVANNAH       CLOUDY    82  75  78 SW9G15    29.96S                  
$$

TNZ008-025-027-028-033-062-065-066-221700-
NORTH MIDDLE TENNESSEE
  
CITY           SKY/WX    TMP DP  RH WIND       PRES   REMARKS
NASHVILLE      PTSUNNY   84  73  69 S8        29.96S HX  90           
PORTLAND       PTSUNNY   72  70  94 N6        29.97S FOG              
CLARKSVILLE    PTSUNNY   84  77  79 SW10      29.92F HX  94           
LEBANON        CLOUDY    82  75  78 SW9       29.94S                  
SMYRNA         PTSUNNY   83  75  77 VRB7      29.97S HX  90           
MURFREESBORO   PTSUNNY   84  73  70 W7G15     29.95S HX  91           
COOKEVILLE     PTSUNNY   82  75  78 SW8       29.98S                  
LIVINGSTON     CLOUDY    75  73  94 VRB7      29.99S                  
GALLATIN       CLOUDY    84  77  79 VRB3      29.98S HX  94           
CROSSVILLE     PTSUNNY   78  69  73 VRB7      30.04S                  
ROCKWOOD       PTSUNNY   79  72  78 S8        30.02S                  
$$

TNZ061-075-076-078-094-096-097-221700-
SOUTH MIDDLE TENNESSEE
  
CITY           SKY/WX    TMP DP  RH WIND       PRES   REMARKS
LAWRENCEBURG   PTSUNNY   84  75  74 SW8       29.98S HX  92           
LEWISBURG      CLOUDY    84  75  74 VRB7G13   29.97S HX  92           
FAYETTEVILLE   CLOUDY    81  73  78 S14       30.00F                  
TULLAHOMA      PTSUNNY   79  73  83 SW8G15    29.99F                  
WINCHESTER     MOSUNNY   82  73  74 SW13      30.00S                  
MCMINNVILLE    PTSUNNY   82  73  74 SW9G16    29.99S                  
COLUMBIA       MOSUNNY   84  79  84 SW10      29.95S HX  96           
SHELBYVILLE    PTSUNNY   81  73  78 SW8G15    29.98S                  
$$

TNZ017-018-042-046-047-221700-
NORTHEAST TENNESSEE
  
CITY           SKY/WX    TMP DP  RH WIND       PRES   REMARKS
TRI CITIES     CLOUDY    78  71  79 SW10      30.01F                  
ELIZABETHTON   PTSUNNY   77  73  88 CALM      30.01F                  
GREENEVILLE    MOSUNNY   75  73  94 SW7       30.02F                  
$$

TNZ012-013-036-069-073-074-221700-
CENTRAL EAST TENNESSEE
  
CITY           SKY/WX    TMP DP  RH WIND       PRES   REMARKS
KNOXVILLE      CLOUDY    80  72  76 SW15      29.98F                  
OAK RIDGE      PTSUNNY   82  72  71 VRB7      30.00F                  
DOWNTOWN KNOXV PTSUNNY   81  75  83 W9        29.99S                  
GATLINBURG     PTSUNNY   77  72  83 W5        29.99F                  
MORRISTOWN     PTSUNNY   79  73  83 SW12G21   29.99F                  
JACKSBORO      MOSUNNY   82  73  74 CALM      30.01F                  
$$

TNZ083-085-099-221700-
SOUTHEAST TENNESSEE
  
CITY           SKY/WX    TMP DP  RH WIND       PRES   REMARKS
CHATTANOOGA    CLOUDY    83  73  72 S10       30.01F                  
$$

SKY/WX REPORTED AS FAIR MEANS FEW OR NO CLOUDS BELOW
12 THOUSAND FEET.